FLOCK 4P-7 (44816 NORAD) Tracking and Keplerian Element Data

This shows tracking and keplerian element data for the satellite.

Feedback or suggestion? Click here.




ElementValue
Catalog44816
NameFLOCK 4P-7
Epoch Orbit865
Epoch Day23.16046448
Epoch Year2020
RAAN84.9967
Inclination97.5166
Eccentricity0.0012508
Argument of Perigee47.4124
Mean Anonmoly312.8164
Mean Motion15.19729945
Decay Rate5.56E-06
L11 44816U 19081N 20023.16046448 .00000556 00000-0 29263-4 0 9994
L22 44816 97.5166 84.9967 0012508 47.4124 312.8164 15.19729945 8656

Live tracking and technical data element details for FLOCK 4P-7 (NORAD 44816). FLOCK 4P-7 can be tracked NOW for your location showing map with azimuth and elevation plus other details from your city location.

Track the satellite on the map from your city or location and see movement details for azimuth, elevation, latitude, longitude, range, height, and movement on the map or in text.







IsCatalogInMostPopularTable: catalog: 44816, numindb: 8
Update: records affected: 1



GetName: 44816 FLOCK 4P-7

Hit Count: updated at: Fri, 24 Jan 2020 10:25:39 GMT